If you wish to contribute or participate in the discussions about articles you are invited to join SKYbrary as a registered user

 Actions

Metz-Nancy-Lorraine Airport

From SKYbrary Wiki

LFJL /
Revision as of 20:14, 16 February 2015 by Timo.Kouwenhoven (talk | contribs) (LF Airports CSV import)
(diff) ← Older revision | Latest revision (diff) | Newer revision → (diff)
Airport
ICAO: LFJL – IATA: ETZ
Summary
Name Metz-Nancy-Lorraine Airport
Region Europe
Territory France FR.gif
Location , Lorraine
Serving Metz
Elevation 265.176 m
870 ft
870 ft265.176 m
Type medium airport
Coordinates 48° 58' 55.71" N, 6° 15' 4.75" E
Runways
Designator Length Width Surface ROPS
4/22 2500 m8,202.1 ft
45 m147.638 ft
ASP yes/yes


METAR
Observation LFJL 260230Z AUTO 07003KT 3000 1100 R22/P2000 R04/1400U BR NSC M00/M00 Q1018 TEMPO 0200 FZFG VV///
Station Metz-Nancy-Lorraine
Date/Time 26 January 2020 02:30:00
Wind direction 70°
Wind speed 03 kts
Lowest cloud amount nil significant cloud
Temperature 4°C
Dew point 14°C
Humidity 196%
QNH 1018 hPa
Weather condition n/a